Погода Весёлая Горка

Погода Весёлая Горка : погода сейчас, прогноз погоды и архив. Всё, что Вы хотите узнать о погоде Весёлая Горка!

Поиск расширенной информации на нашем сайте:

Другие новости

Новости СМИ2

Главная страница сайта

Новости сайта

02.10.2013

Напоминаем, что на нашем новом сайте вы можете получить высокодетализированные прогнозы погоды по пунктам России, СНГ и мира (включающие важные для авиации метеовеличины, такие как направление и скорость ветра, видимость, явления погоды, количество и форма облачности, нижняя и верхняя граница облачности), а также ознакомиться с разнообразными материалами по авиационной метеорологии и подборкой полезных ссылок на эту тему.

Сайт Метеоцентр.Азия посвящён разработке технологий оптимизации авиаметеорологического обслуживания, включая проектирование и перспективное создание нескольких автоматизированных авиаметеорологических систем:
- система выпуска высокодетальных прогностических карт явлений погоды для нижнего воздушного пространства по России и ближнему зарубежью;
- система верификации прогнозов TAF (выпускаемых синоптиками официальных АМСГ РФ и ближнего зарубежья) и AUTOTAF (выпускаемых сайтом Метеоцентр.Азия) - выявление ошибок, онлайн-сопоставление с фактической погодой METAR, автоматическое внесение коррективов в прогнозы при резком отклонении фактической погоды от прогноза, подсчёт оправдываемости прогнозов по элементам и в целом;
- система обработки, анализа и отображения авиаметеорологической информации для применения провайдерами метеорологической информации.

Рекомендуем: Смотрим документальное кино.

Погода Весёлая Горка - сегодня

Время (UTC), дата Ветер
(°,м/с) 
Видим.   Явления Облачность Т
(°С)
Тd
(°С)
f(%) Тe
(°С)
Pmin
(гПа)
dP
(гПа)
Po
(мм)
O2
(г/м3)
Тmin Tmax R s Состояние
почвы
15 24.04.17 тихо ()   2000 м  ливневой снег  10/10 600 м кучево-дожд. 
[Cb cap]
-0.1 -0.4 98 -0  1022.7  0.3  748  302           
18 24.04.17 360 (С) 10 км  {ливн. осадки}  10/10 600 м кучево-дожд. 
[Cb cap]
-0.5 -1.9 90 1022.1  -0.6  748  302           
21 24.04.17 тихо ()   1000 м  ливневой снег  10/10 600 м кучево-дожд. 
[Cb cap]
-0.9 -1.5 96 -1  1022.2  748  302  -1    равномерный
мокрый или
старый снег
100% 
00 25.04.17 010 (С) 20000 м  {ливн. осадки}  10/10 600 м кучево-дожд. 
[Cb cap]
+0.1 -2.3 84 +1  1020.8  -1.3  747  301           
03 25.04.17 020 (С) 20000 м    10/10 600 м кучево-дожд. 
[Cb cap]
+3.1 -1.5 72 +3  1018.8  -1.7  745  297           
06 25.04.17 010 (С) 20000 м    10/10 600 м кучево-дожд. 
[Cb cap]
+4.6 -2.6 60 +3  1016.2  -2.4  744  295           
09 25.04.17 010 (С) 20000 м    10/10 600 м кучево-дожд. 
[Cb cap]
+4.2 -2.2 63 +5  1015.4  -0.9  743  295    +4.8  0.0     
12 25.04.17 010 (С) 20000 м    10/10 600 м кучево-дожд. 
[Cb cap]
+2.8 -2.7 67 +2  1014.9  -0.6  743  296           
15 25.04.17 350 (С) 20000 м    10/10 600 м кучево-дожд. 
[Cb cap]
+1 -1.1 86 -1  1013.1  -1.8  741  298           
18 25.04.17 360 (С) 10 км  слаб. ливневой снег  10/10 600 м кучево-дожд. 
[Cb cap]
+0.4 -0.4 94 1011.7  -1.5  740  298           
21 25.04.17 350 (С) 4000 м  слаб. ливневой снег  10/10 600 м кучево-дожд. 
[Cb cap]
+0.5 -0.3 94 1010.6  -1.1  739  297  +0.4    равномерный
мокрый или
старый снег
100% 
00 26.04.17 360 (С) 1000 м  ливневой снег  10/10 600 м кучево-дожд. 
[Cb cap]
+0.9 +0.1 94 1010  -0.5  739  297           
03 26.04.17 010 (С) 4000 м  слаб. ливневой снег  10/10 600 м кучево-дожд. 
[Cb cap]
+1.5 +0.6 94 +2  1009.7  -0.2  739  296           
06 26.04.17 010 (С) 4000 м  слаб. ливневой снег  10/10 600 м кучево-дожд. 
[Cb cap]
+2 +0.9 92 +3  1009.1  -0.6  738  295           
09 26.04.17 010 (С) 20000 м  {ливн. осадки}  10/10 600 м кучево-дожд. 
[Cb cap]
+2.6 +1.3 91 +3  1008.6  -0.6  738  294    +2.7     
12 26.04.17 тихо ()   20000 м  {ливн. осадки}  10/10 600 м кучево-дожд. 
[Cb cap]
+1.6 +1.1 96 +2  1008.5  -0.2  738  295           
15 26.04.17 260 (З) 20000 м    10/10 600 м кучево-дожд. 
[Cb cap]
+1.7 +0.9 94 +2  1007.3  -1.2  737  295           
18 26.04.17 280 (З) 20000 м    10/10 600 м 
[]
+1.6 +0.8 94 +2  1005.8  -1.4  736  295           
21 26.04.17 тихо ()   20000 м    10/5 600 м кучево-дожд., средняя, верхняя 
[Cb cap|Ac trans|Ci fib]
+1.6 +1.4 99 +2  1004.7  -1  735  294  +0.6        мокрый или
старый снег
10-40% 
00 27.04.17 200 (Ю) 20000 м    10/10 600 м кучево-дожд. 
[Cb cap]
+4.7 +1.3 79 +6  1003.4  -1  734  291           
03 27.04.17 130 (ЮВ) 20000 м    10/10 600 м кучево-дожд. 
[Cb cap]
+8.9 -0.9 50 +10  1001.4  -1.6  733  286           
06 27.04.17 340 (С) 20000 м    10/10 600 м кучево-дожд. 
[Cb cap]
+9.3 -1.5 47 +10  1000.1  -1.2  732  285           
09 27.04.17 160 (Ю) 20000 м    10/6 600 м кучево-дожд., верхняя 
[Cb cap|Ci]
+8.9 -1.9 47 +10  999.6  -0.5  732  286    +9.8       
12 27.04.17 340 (С) 20000 м    8/1 600 м кучево-дожд., верхняя 
[Cb cap|Ci]
+3.9 +0 76 +5  1000.7  0.7  732  291           
15 27.04.17 230 (ЮЗ) 20000 м    3/0 верхняя 
[Ci]
+0.7 -0.9 89 +1  1000.3  -0.7  732  294           
Время (UTC), дата Ветер
(°,м/с) 
Видим.   Явления Облачность Т
(°С)
Тd
(°С)
f(%) Тe
(°С)
Pmin
(гПа)
dP
(гПа)
Po
(мм)
O2
(г/м3)
Тmin Tmax R s Состояние
почвы

Для получения пояснительной информации подведите курсор к названию столбца.

ПОГОДА Весёлая Горка - архив

Всё, что Вы хотите узнать о погоде Весёлая Горка - удобно и подробно!

Выберите нужную дату (начиная с 1 января 2015* года) и нажмите кнопку "Найти".
Будут отображены архивные сводки погоды по пункту Весёлая Горка, начиная с указанной даты.


Отображать данные в формате CSV (для использования в таблицах Excel)


Внимание! Наш архив погоды предназначен исключительно для личного некоммерческого использования в познавательных целях. Если Вам необходимы официальные справки о состоянии погоды (для производственных, юридических, коммерческих и т.п. целей), обращайтесь в органы Росгидромета.

*Примечание: данная дата относится к архиву по метеостанциям СССР (Россия, СНГ, Балтия).
Архив по метеостанциям Зарубежной Европы и Азии (кроме Китая) хранится 10 дней, по другим регионам земного шара (Китай, Африка, Америка, Австралия, Океания) - 1 день.

Весёлая Горка - район местоположения метеостанции


Название, широта, долгота, высота метеостанции:
Весёлая Горка 52.3°ш. 135.8°д. 201 м над ур. моря [Российская Федерация]

Дополнительная информация

В oтличие oт бoльшинства пoгoдных сайтoв мы публикуем пoдрoбную метеoинфoрмацию в детальнoм прoфессиoнальнoм фoрмате.

Характеристики температуры и влажнoсти вoздуха измеряются на высoте 2 м в тени вдали oт зданий и деревьев.
Скoрoсть ветра измеряется на высoте 10 м (на урoвне рoста челoвека скoрoсть ветра ниже в 1.5-2 раза). Если метеoстанция нахoдится в гoрoде или в лесу, тo скoрoсть ветра занижена на 2-4 м/с пo сравнению с oткрытым местoм. Скoрoсть ветра над акватoриями крупных рек и oзёр, а также на вершинах хoлмoв на 2-5 м/с выше, чем в oбычных услoвиях.
Атмoсфернoе давление в разных тoчках местнoсти мoжет значительнo oтличаться oт давления на метеoстанции, в зависимoсти oт услoвий рельефа (при пoдъёме на 10 м давление пoнижается примернo на 1 мм рт.ст.).